Regional Weather Roundup
Issued by NWS

Home | Current Version | Previous Version | Text Only | Print | Product List | Glossary On
Versions: 1 2 3 4 5 6 7 8 9 10 11 12 13 14 15 16 17 18 19 20 21 22 23 24 25 26 27 28 29 30 31 32 33 34 35 36 37 38 39 40 41 42 43 44 45 46 47 48 49 50
764
ASUS44 KJAN 181310
RWRMS

MISSISSIPPI HOURLY WEATHER ROUNDUP
NATIONAL WEATHER SERVICE JACKSON MS
800 AM CDT THU SEP 18 2014

NOTE: "FAIR: INDICATES FEW OR NO CLOUDS BELOW 12,000 FEET WITH NO
SIGNIFICANT WEATHER AND/OR OBSTRUCTIONS TO VISIBILITY.

MSZ001>002-007>008-010>013-018>021-025>028-034>036-181400-
NORTHWEST MISSISSIPPI

CITY           SKY/WX    TMP DP  RH WIND       PRES   REMARKS
CLARKSDALE     FAIR      70  70 100 CALM      29.95R
CLEVELAND      FAIR      73  70  91 SE5       29.93R
GREENWOOD      CLOUDY    72  67  84 S7        29.94R
GREENVILLE     CLOUDY    73  70  90 CALM      29.93R
GRENADA        FAIR      70  64  83 SE6       29.95R
OLIVE BRANCH   PTSUNNY   64  64 100 CALM      29.97R
OXFORD         FAIR      66  63  88 SE5       29.97R
TUNICA         CLOUDY    68  66  94 E3        29.95R FOG
$$

MSZ003>006-009-014>017-022>024-029>033-037>039-181400-
NORTHEAST MISSISSIPPI

CITY           SKY/WX    TMP DP  RH WIND       PRES   REMARKS
COLUMBUS AFB   PTSUNNY   67  61  82 SE2       29.97R
CORINTH        PTSUNNY   64  61  88 CALM      29.97S
GOLDN TRIANGLE SUNNY     68  61  77 CALM      29.97R
STARKVILLE     FAIR      68  64  88 CALM      29.97R
TUPELO         CLOUDY    68  64  87 CALM      29.97R
$$

MSZ040-058-181400-
CENTRAL MISSISSIPPI

CITY           SKY/WX    TMP DP  RH WIND       PRES   REMARKS
JACKSON INTL   PTSUNNY   73  69  87 SW3       29.94R
JACKSON HAWKNS MOSUNNY   74  68  81 SE3       29.95R
MERIDIAN KEY   MOSUNNY   72  67  84 N3        29.95R
MERIDIAN NAS   MOSUNNY   70  66  87 CALM      29.96R
RAYMOND        FAIR      75  70  83 MISG      29.94S
VICKSBURG      PTSUNNY   76  72  87 CALM      29.94R
$$

MSZ059>079-181400-
SOUTH MISSISSIPPI

CITY           SKY/WX    TMP DP  RH WIND       PRES   REMARKS
BROOKHAVEN     FAIR      72  72 100 CALM      29.97R FOG
COLUMBIA       FAIR      72  72 100 CALM      29.93R
HATTIESBURG    MOSUNNY   74  70  87 CALM      29.95R
MCCOMB         CLOUDY    74  72  93 CALM      29.95R
NATCHEZ        CLOUDY    73  70  88 CALM      29.95R
PINE BELT      MOSUNNY   73  66  78 CALM      29.96R
$$

MSZ080>082-181400-
COASTAL MISSISSIPPI

CITY           SKY/WX    TMP DP  RH WIND       PRES   REMARKS
BAY ST LOUIS   MOSUNNY   75  72  88 VRB3      29.93R
BILOXI         MOSUNNY   76  73  91 N3        29.93R
PASCAGOULA     MOSUNNY   75  73  93 CALM      29.93R
GULFPORT       MOSUNNY   76  73  91 CALM      29.93R
$$



USA.gov is the U.S. government's official web portal to all federal, state and local government web resources and services.